Time,TemperatureF,DewpointF,PressureIn,WindDirection,WindDirectionDegrees,WindSpeedMPH,WindSpeedGustMPH,Humidity,HourlyPrecipIn,Conditions,Clouds,dailyrainin,SolarRadiationWatts/m^2,SoftwareType,DateUTC
2013-01-09 00:07:00,33.5,26.0,30.10,SSE,167,0.0,3.0,73,0.00,,,0.00,0,weatherlink.com 1.10,2013-01-09 05:07:00,
2013-01-09 00:22:00,33.1,25.0,30.09,SSE,165,0.0,1.0,73,0.00,,,0.00,0,weatherlink.com 1.10,2013-01-09 05:22:00,
2013-01-09 00:37:00,32.9,25.0,30.08,SSE,165,0.0,3.0,74,0.00,,,0.00,0,weatherlink.com 1.10,2013-01-09 05:37:00,
2013-01-09 00:53:00,32.7,25.0,30.07,SSW,202,1.0,4.0,74,0.00,,,0.00,0,weatherlink.com 1.10,2013-01-09 05:53:00,
2013-01-09 01:07:00,32.7,26.0,30.07,SSW,206,0.0,2.0,75,0.00,,,0.00,0,weatherlink.com 1.10,2013-01-09 06:07:00,
2013-01-09 01:22:00,33.1,26.0,30.05,SSW,210,0.0,9.0,75,0.00,,,0.00,0,weatherlink.com 1.10,2013-01-09 06:22:00,
2013-01-09 01:37:00,33.5,26.0,30.04,SSW,199,0.0,3.0,74,0.00,,,0.00,0,weatherlink.com 1.10,2013-01-09 06:37:00,
2013-01-09 01:52:00,33.7,26.0,30.03,SSW,198,0.0,2.0,74,0.00,,,0.00,0,weatherlink.com 1.10,2013-01-09 06:52:00,
2013-01-09 02:07:00,34.2,27.0,30.03,WSW,247,0.0,6.0,75,0.00,,,0.00,0,weatherlink.com 1.10,2013-01-09 07:07:00,
2013-01-09 02:23:00,34.4,27.0,30.04,SW,225,0.0,3.0,75,0.00,,,0.00,0,weatherlink.com 1.10,2013-01-09 07:23:00,
2013-01-09 02:38:00,34.7,28.0,30.03,SW,234,0.0,5.0,75,0.00,,,0.00,0,weatherlink.com 1.10,2013-01-09 07:38:00,
2013-01-09 02:53:00,35.0,28.0,30.04,WSW,240,2.0,5.0,76,0.00,,,0.00,0,weatherlink.com 1.10,2013-01-09 07:53:00,
2013-01-09 03:08:00,35.5,29.0,30.02,SW,232,0.0,7.0,76,0.00,,,0.00,0,weatherlink.com 1.10,2013-01-09 08:08:00,
2013-01-09 03:23:00,35.9,29.0,30.02,South,185,0.0,5.0,75,0.00,,,0.00,0,weatherlink.com 1.10,2013-01-09 08:23:00,
2013-01-09 03:38:00,36.4,29.0,30.02,South,181,6.0,12.0,75,0.00,,,0.00,0,weatherlink.com 1.10,2013-01-09 08:38:00,
2013-01-09 03:53:00,36.8,30.0,30.02,SW,229,2.0,7.0,75,0.00,,,0.00,0,weatherlink.com 1.10,2013-01-09 08:53:00,
2013-01-09 04:08:00,37.0,30.0,30.01,SSE,154,1.0,4.0,75,0.00,,,0.00,0,weatherlink.com 1.10,2013-01-09 09:08:00,
2013-01-09 04:23:00,37.2,30.0,30.01,SW,226,7.0,8.0,76,0.00,,,0.00,0,weatherlink.com 1.10,2013-01-09 09:23:00,
2013-01-09 04:38:00,37.3,30.0,30.00,SW,234,3.0,9.0,76,0.00,,,0.00,0,weatherlink.com 1.10,2013-01-09 09:38:00,
2013-01-09 04:53:00,37.5,31.0,30.00,SW,232,0.0,8.0,76,0.00,,,0.00,0,weatherlink.com 1.10,2013-01-09 09:53:00,
2013-01-09 05:08:00,37.5,31.0,30.00,WSW,246,2.0,10.0,77,0.00,,,0.00,0,weatherlink.com 1.10,2013-01-09 10:08:00,
2013-01-09 05:23:00,37.6,31.0,30.00,WSW,242,3.0,6.0,78,0.00,,,0.00,0,weatherlink.com 1.10,2013-01-09 10:23:00,
2013-01-09 05:38:00,37.6,32.0,30.00,SW,230,0.0,6.0,79,0.00,,,0.00,0,weatherlink.com 1.10,2013-01-09 10:38:00,
2013-01-09 05:53:00,37.6,32.0,30.00,SW,236,3.0,10.0,80,0.00,,,0.00,0,weatherlink.com 1.10,2013-01-09 10:53:00,
2013-01-09 06:08:00,38.4,33.0,30.00,WSW,248,5.0,10.0,80,0.00,,,0.00,0,weatherlink.com 1.10,2013-01-09 11:08:00,
2013-01-09 06:23:00,39.5,34.0,30.00,WSW,238,5.0,19.0,79,0.00,,,0.00,0,weatherlink.com 1.10,2013-01-09 11:23:00,
2013-01-09 06:38:00,40.0,33.0,30.01,WSW,245,6.0,20.0,77,0.00,,,0.00,0,weatherlink.com 1.10,2013-01-09 11:38:00,
2013-01-09 06:53:00,40.0,33.0,30.01,WSW,244,12.0,15.0,77,0.00,,,0.00,0,weatherlink.com 1.10,2013-01-09 11:53:00,
2013-01-09 07:08:00,39.7,33.0,30.01,WSW,240,16.0,17.0,77,0.00,,,0.00,0,weatherlink.com 1.10,2013-01-09 12:08:00,
2013-01-09 07:23:00,39.5,33.0,30.03,SW,232,9.0,17.0,78,0.00,,,0.00,0,weatherlink.com 1.10,2013-01-09 12:23:00,
2013-01-09 07:38:00,39.5,34.0,30.04,West,273,4.0,14.0,79,0.00,,,0.00,0,weatherlink.com 1.10,2013-01-09 12:38:00,
2013-01-09 07:53:00,39.6,34.0,30.06,WNW,285,5.0,15.0,79,0.00,,,0.00,0,weatherlink.com 1.10,2013-01-09 12:53:00,
2013-01-09 08:08:00,39.7,34.0,30.07,West,263,4.0,17.0,79,0.00,,,0.00,0,weatherlink.com 1.10,2013-01-09 13:08:00,
2013-01-09 08:23:00,39.5,34.0,30.09,WNW,292,10.0,17.0,79,0.00,,,0.00,5,weatherlink.com 1.10,2013-01-09 13:23:00,
2013-01-09 08:39:00,39.3,33.0,30.09,WSW,257,4.0,16.0,78,0.00,,,0.00,26,weatherlink.com 1.10,2013-01-09 13:39:00,
2013-01-09 08:54:00,39.1,33.0,30.10,WSW,250,7.0,13.0,78,0.00,,,0.00,32,weatherlink.com 1.10,2013-01-09 13:54:00,
2013-01-09 09:09:00,38.8,33.0,30.11,WSW,240,5.0,14.0,78,0.00,,,0.00,58,weatherlink.com 1.10,2013-01-09 14:09:00,
2013-01-09 09:24:00,38.7,32.0,30.12,WNW,300,6.0,11.0,78,0.00,,,0.00,113,weatherlink.com 1.10,2013-01-09 14:24:00,
2013-01-09 09:39:00,38.6,33.0,30.12,WNW,298,7.0,15.0,79,0.00,,,0.00,144,weatherlink.com 1.10,2013-01-09 14:39:00,
2013-01-09 09:54:00,38.8,33.0,30.12,SW,221,4.0,15.0,79,0.00,,,0.00,155,weatherlink.com 1.10,2013-01-09 14:54:00,
2013-01-09 10:09:00,39.2,33.0,30.13,WNW,290,4.0,18.0,78,0.00,,,0.00,181,weatherlink.com 1.10,2013-01-09 15:09:00,
2013-01-09 10:24:00,39.7,33.0,30.13,WSW,250,7.0,15.0,77,0.00,,,0.00,276,weatherlink.com 1.10,2013-01-09 15:24:00,
2013-01-09 10:39:00,40.2,33.0,30.13,WNW,283,3.0,17.0,75,0.00,,,0.00,304,weatherlink.com 1.10,2013-01-09 15:39:00,
2013-01-09 10:54:00,41.0,33.0,30.14,West,281,4.0,19.0,73,0.00,,,0.00,336,weatherlink.com 1.10,2013-01-09 15:54:00,
2013-01-09 11:09:00,41.6,33.0,30.14,WSW,247,4.0,16.0,71,0.00,,,0.00,362,weatherlink.com 1.10,2013-01-09 16:09:00,
2013-01-09 11:24:00,42.0,33.0,30.14,WSW,245,7.0,15.0,70,0.00,,,0.00,387,weatherlink.com 1.10,2013-01-09 16:24:00,
2013-01-09 11:39:00,42.7,32.0,30.14,WNW,288,4.0,16.0,67,0.00,,,0.00,403,weatherlink.com 1.10,2013-01-09 16:39:00,
2013-01-09 11:54:00,43.2,32.0,30.14,SW,236,4.0,20.0,66,0.00,,,0.00,418,weatherlink.com 1.10,2013-01-09 16:54:00,
2013-01-09 12:09:00,43.5,33.0,30.13,SW,236,14.0,15.0,66,0.00,,,0.00,429,weatherlink.com 1.10,2013-01-09 17:09:00,
2013-01-09 12:24:00,43.4,33.0,30.14,West,277,1.0,17.0,66,0.00,,,0.00,432,weatherlink.com 1.10,2013-01-09 17:24:00,
2013-01-09 12:39:00,43.9,32.0,30.14,WSW,257,13.0,20.0,64,0.00,,,0.00,438,weatherlink.com 1.10,2013-01-09 17:39:00,
2013-01-09 12:54:00,44.0,32.0,30.14,SW,230,10.0,24.0,62,0.00,,,0.00,438,weatherlink.com 1.10,2013-01-09 17:54:00,
2013-01-09 13:09:00,43.8,32.0,30.14,West,276,9.0,21.0,63,0.00,,,0.00,452,weatherlink.com 1.10,2013-01-09 18:09:00,
2013-01-09 13:24:00,43.9,32.0,30.15,West,261,12.0,20.0,63,0.00,,,0.00,338,weatherlink.com 1.10,2013-01-09 18:24:00,
2013-01-09 13:39:00,44.1,32.0,30.15,East,97,11.0,20.0,62,0.00,,,0.00,406,weatherlink.com 1.10,2013-01-09 18:39:00,
2013-01-09 13:54:00,43.9,31.0,30.17,SW,222,19.0,24.0,60,0.00,,,0.00,202,weatherlink.com 1.10,2013-01-09 18:54:00,
2013-01-09 14:09:00,44.0,30.0,30.17,WNW,282,7.0,23.0,59,0.00,,,0.00,373,weatherlink.com 1.10,2013-01-09 19:09:00,
2013-01-09 14:24:00,44.0,30.0,30.19,South,191,4.0,20.0,58,0.00,,,0.00,253,weatherlink.com 1.10,2013-01-09 19:24:00,
2013-01-09 14:39:00,44.1,29.0,30.19,West,265,21.0,23.0,55,0.00,,,0.00,353,weatherlink.com 1.10,2013-01-09 19:39:00,
2013-01-09 14:54:00,44.3,29.0,30.20,WSW,248,11.0,27.0,56,0.00,,,0.00,327,weatherlink.com 1.10,2013-01-09 19:54:00,
2013-01-09 15:09:00,44.1,29.0,30.21,WSW,257,9.0,22.0,55,0.00,,,0.00,299,weatherlink.com 1.10,2013-01-09 20:09:00,
2013-01-09 15:24:00,43.9,29.0,30.22,West,274,9.0,19.0,56,0.00,,,0.00,267,weatherlink.com 1.10,2013-01-09 20:24:00,
2013-01-09 15:40:00,43.9,29.0,30.23,WNW,284,6.0,24.0,56,0.00,,,0.00,230,weatherlink.com 1.10,2013-01-09 20:40:00,
2013-01-09 15:55:00,43.8,27.0,30.25,WNW,283,8.0,21.0,52,0.00,,,0.00,186,weatherlink.com 1.10,2013-01-09 20:55:00,
2013-01-09 16:10:00,43.6,27.0,30.26,WNW,286,4.0,18.0,52,0.00,,,0.00,97,weatherlink.com 1.10,2013-01-09 21:10:00,
2013-01-09 16:25:00,42.9,28.0,30.27,SW,233,14.0,17.0,55,0.00,,,0.00,49,weatherlink.com 1.10,2013-01-09 21:25:00,
2013-01-09 16:40:00,42.2,27.0,30.28,WSW,244,6.0,19.0,56,0.00,,,0.00,30,weatherlink.com 1.10,2013-01-09 21:40:00,
2013-01-09 16:55:00,41.6,27.0,30.29,WSW,241,11.0,18.0,57,0.00,,,0.00,23,weatherlink.com 1.10,2013-01-09 21:55:00,
2013-01-09 17:10:00,40.9,27.0,30.31,WNW,288,8.0,20.0,59,0.00,,,0.00,16,weatherlink.com 1.10,2013-01-09 22:10:00,
2013-01-09 17:25:00,40.4,27.0,30.31,WNW,298,2.0,21.0,60,0.00,,,0.00,11,weatherlink.com 1.10,2013-01-09 22:25:00,
2013-01-09 17:40:00,39.9,27.0,30.32,West,279,1.0,13.0,61,0.00,,,0.00,0,weatherlink.com 1.10,2013-01-09 22:40:00,
2013-01-09 17:55:00,39.6,27.0,30.33,WNW,290,10.0,14.0,61,0.00,,,0.00,5,weatherlink.com 1.10,2013-01-09 22:55:00,
2013-01-09 18:10:00,39.3,28.0,30.34,West,268,7.0,14.0,63,0.00,,,0.00,0,weatherlink.com 1.10,2013-01-09 23:10:00,
2013-01-09 18:25:00,39.0,28.0,30.35,West,261,3.0,16.0,64,0.00,,,0.00,0,weatherlink.com 1.10,2013-01-09 23:25:00,
2013-01-09 18:40:00,38.7,28.0,30.35,West,277,2.0,12.0,66,0.00,,,0.00,0,weatherlink.com 1.10,2013-01-09 23:40:00,
2013-01-09 18:55:00,38.5,28.0,30.36,WNW,295,5.0,13.0,67,0.00,,,0.00,0,weatherlink.com 1.10,2013-01-09 23:55:00,
2013-01-09 19:10:00,38.4,28.0,30.38,West,279,2.0,11.0,66,0.00,,,0.00,0,weatherlink.com 1.10,2013-01-10 00:10:00,
2013-01-09 19:25:00,38.2,28.0,30.38,West,276,2.0,9.0,66,0.00,,,0.00,0,weatherlink.com 1.10,2013-01-10 00:25:00,
2013-01-09 19:40:00,38.2,27.0,30.39,WSW,253,2.0,12.0,65,0.00,,,0.00,0,weatherlink.com 1.10,2013-01-10 00:40:00,
2013-01-09 19:55:00,38.1,28.0,30.39,WNW,284,0.0,9.0,66,0.00,,,0.00,0,weatherlink.com 1.10,2013-01-10 00:55:00,
2013-01-09 20:10:00,37.9,27.0,30.40,West,274,0.0,6.0,66,0.00,,,0.00,0,weatherlink.com 1.10,2013-01-10 01:10:00,
2013-01-09 20:25:00,37.7,28.0,30.40,WNW,284,2.0,8.0,67,0.00,,,0.00,0,weatherlink.com 1.10,2013-01-10 01:25:00,
2013-01-09 20:40:00,37.4,28.0,30.41,West,277,6.0,9.0,68,0.00,,,0.00,0,weatherlink.com 1.10,2013-01-10 01:40:00,
2013-01-09 20:55:00,37.1,28.0,30.41,NW,306,3.0,8.0,69,0.00,,,0.00,0,weatherlink.com 1.10,2013-01-10 01:55:00,
2013-01-09 21:10:00,36.9,28.0,30.42,WNW,292,3.0,7.0,69,0.00,,,0.00,0,weatherlink.com 1.10,2013-01-10 02:10:00,
2013-01-09 21:25:00,36.7,27.0,30.43,West,269,3.0,6.0,69,0.00,,,0.00,0,weatherlink.com 1.10,2013-01-10 02:25:00,
2013-01-09 21:40:00,36.4,27.0,30.42,WNW,289,1.0,3.0,70,0.00,,,0.00,0,weatherlink.com 1.10,2013-01-10 02:40:00,
2013-01-09 21:55:00,36.2,27.0,30.43,WNW,298,0.0,4.0,70,0.00,,,0.00,0,weatherlink.com 1.10,2013-01-10 02:55:00,
2013-01-09 22:10:00,35.9,27.0,30.43,WNW,298,0.0,3.0,70,0.00,,,0.00,0,weatherlink.com 1.10,2013-01-10 03:10:00,
2013-01-09 22:25:00,35.5,27.0,30.43,WNW,298,0.0,1.0,70,0.00,,,0.00,0,weatherlink.com 1.10,2013-01-10 03:25:00,
2013-01-09 22:40:00,35.1,27.0,30.44,WNW,298,0.0,1.0,71,0.00,,,0.00,0,weatherlink.com 1.10,2013-01-10 03:40:00,
2013-01-09 22:55:00,34.7,27.0,30.42,WNW,298,0.0,0.0,72,0.00,,,0.00,0,weatherlink.com 1.10,2013-01-10 03:55:00,
2013-01-09 23:10:00,34.1,26.0,30.43,WNW,298,0.0,0.0,72,0.00,,,0.00,0,weatherlink.com 1.10,2013-01-10 04:10:00,
2013-01-09 23:25:00,33.1,25.0,30.43,WNW,298,0.0,0.0,73,0.00,,,0.00,0,weatherlink.com 1.10,2013-01-10 04:25:00,
2013-01-09 23:40:00,32.3,25.0,30.42,WNW,298,0.0,0.0,74,0.00,,,0.00,0,weatherlink.com 1.10,2013-01-10 04:40:00,
2013-01-09 23:55:00,31.6,25.0,30.43,WNW,298,0.0,0.0,75,0.00,,,0.00,0,weatherlink.com 1.10,2013-01-10 04:55:00,